SCP
0 0 0 0 0 0 -0 0 0 0 0 0 0 0 0 0 0 0 0 0 -0 -0 -0 -0 -0 -0 -0 -0 -0 -0 -0 -0 -0 -0 -0 -0 -0 -0 -0 -0 -0 -0 -0 -0 -0 -0 -0 -0 -0
0 0 0 0 0 0 0 0 0 0 0 0 0 0 0 0 0 0 0 0 0 -0 -0 -0 -0 -0 -0 -0 -0 -0 -0 -0 -0 -0 -0 -0 -0 0 0 -0 -0 -0 -0 0 0 0 -0 -0 -0
-0 0 0 0 0 0 0 0 0 0 0 0 0 0 0 0 0 0 0 0 0 0 0 0 -0 -0 -0 -0 -0 -0 -0 -0 -0 -0 -0 -0 0 0 -0 0 0 0 0 0 0 0 0 0 0
0 0 0 0 -0 0 0 0 0 0 0 0 0 0 0 0 0 0 0 0 0 0 0 0 0 0 -0 -0 -0 -0 -0 -0 -0 -0 0 0 0 0 0 0 0 0 0 0 0 0 0 0 0
0 0 0 0 0 0 0 0 0 0 0 0 0 0 0 0 0 0 0 0 0 0 0 0 0 0 0 0 0 0 0 0 0 0 0 0 0 0 0 0 0 0 0 0 0 0 0 0 0
0 0 0 0 0 0 0 0 0 0 0 0 0 0 0 0 0 0 0 0 0 0 0 0 0 0 0 0 0 0 0 0 0 0 0 0 0 0 0 0 0 0 -0 0 0 0 0 0 0
0 0 0 0 -0 0 0 0 0 0 0 0 0 0 0 0 0 0 0 0 0 0 0 0 0 0 0 0 0 0 0 0 0 0 0 0 0 0 0 0 0 0 0 0 0 0 0 0 0
0 0 0 0 0 0 0 0 0 0 0 0 0 0 0 0 0 0 0 0 0 0 0 0 0 0 0 0 0 0 0 0 0 0 0 0 0 0 0 0 0 0 0 0 0 0 0 0 0
0 0 0 0 0 0 0 0 0 0 0 0 0 0 0 0 0 0 0 0 0 0 0 0 0 0 0 0 0 0 0 0 0 0 0 0 0 0 0 0 0 0 0 0 0 0 0 0 0
0 0 0 0 0 0 0 0 0 0 0 0 0 0 0 0 0 0 0 0 0 0 0 0 0 0 0 0 0 0 0 0 0 0 0 0 0 0 0 0 0 0 0 0 0 0 0 0 0
0 0 0 0 0 0 0 0 0 0 0 0 0 0 0 0 0 0 0 0 0 0 0 0 0 0 0 0 0 0 0 0 0 0 0 0 0 0 0 0 0 0 0 0 0 0 0 0 0
0 0 0 0 0 0 0 0 0 0 0 0 0 0 0 0 0 0 0 0 0 0 0 0 0 0 0 0 0 0 0 0 0 0 0 0 0 0 0 0 0 0 0 0 0 0 0 0 0
0 0 0 0 0 0 0 0 0 0 0 0 0 0 0 0 0 0 0 0 0 0 0 0 0 0 0 0 0 0 0 0 0 0 0 0 0 0 0 0 0 0 0 0 0 0 0 0 0
0 0 0 0 0 0 0 0 0 0 0 0 0 0 0 0 0 0 0 0 0 0 0 0 0 0 0 0 0 0 0 0 0 0 0 0 0 0 0 0 0 0 0 0 0 0 0 0 0
0 0 0 0 0 0 0 0 0 0 0 0 0 0 0 0 0 0 0 0 0 0 0 0 0 0 0 0 0 0 0 0 0 0 0 0 0 0 0 0 0 0 0 0 0 0 0 0 0
0 0 0 0 0 0 0 0 0 0 0 0 0 0 0 0 0 0 0 0 0 0 0 0 0 0 0 0 0 0 0 0 0 0 0 0 0 0 0 0 0 0 0 0 0 0 0 0 -0
0 0 0 0 0 0 0 0 0 0 0 0 0 0 0 0 0 0 0 0 0 0 0 0 0 0 0 0 0 0 0 0 0 0 0 0 0 0 0 0 0 0 0 0 0 0 0 0 -0
0 0 0 0 0 0 0 0 0 0 0 0 0 0 0 0 0 0 0 0 0 0 0 0 0 0 0 0 0 0 0 0 0 0 0 0 0 0 0 0 0 0 0 0 0 0 0 0 -0
0 0 0 0 0 0 0 0 0 0 0 0 0 0 0 0 0 0 0 0 0 0 0 0 0 0 0 0 0 0 0 0 0 0 0 0 0 0 0 0 0 0 0 0 0 0 0 0 0
0 0 0 0 0 0 0 0 0 0 0 0 0 0 0 0 0 0 0 0 0 0 0 0 0 0 0 0 0 0 0 0 0 0 0 0 0 0 0 0 0 0 0 0 0 0 0 0 0
0 0 0 0 0 0 0 0 0 0 0 0 0 0 0 0 0 0 0 0 0 0 0 0 0 0 0 0 0 0 0 0 0 0 0 0 0 0 0 0 0 0 0 0 0 0 0 0 0
0 0 0 0 0 0 0 -0 0 0 0 0 0 0 0 0 0 0 0 0 0 0 0 0 0 0 0 0 0 0 0 0 0 0 0 0 0 0 0 0 0 0 0 0 0 0 0 0 0
0 0 0 0 0 0 0 0 0 0 0 0 0 0 0 0 0 0 0 0 0 0 0 0 0 0 0 0 0 0 0 0 0 0 0 0 0 0 0 0 0 0 0 0 0 0 0 0 0
0 0 0 0 0 0 0 0 0 0 0 0 0 0 0 0 0 0 0 0 0 0 0 0 0 0 0 0 0 0 0 0 0 0 0 0 0 0 0 0 0 0 0 0 0 0 0 0 0
0 0 0 0 0 0 0 0 0 0 0 0 0 0 0 0 0 0 0 0 0 0 0 0 0 0 0 0 0 0 0 0 0 0 0 0 0 0 0 0 0 0 0 0 0 0 0 0 0
0 0 0 0 0 0 0 0 0 0 0 0 0 0 0 0 0 0 0 0 0 0 0 0 0 0 0 0 0 0 0 0 0 0 0 0 0 0 0 0 0 0 0 0 0 0 0 0 0
0 0 0 0 0 0 0 0 0 0 0 0 0 0 0 0 0 0 0 0 0 0 0 0 0 0 0 0 0 0 0 0 0 0 0 0 0 0 0 0 0 0 0 0 0 0 0 0 0
0 0 0 0 0 0 0 0 0 0 0 0 0 0 0 0 0 0 0 0 0 0 0 0 0 0 0 0 0 0 0 0 0 0 0 0 0 0 0 0 0 0 0 0 0 0 0 0 0
0 0 0 0 0 0 0 0 0 0 0 0 0 0 0 0 0 0 0 0 0 0 0 0 0 0 0 0 0 0 0 0 0 0 0 0 0 0 0 0 0 0 0 0 0 0 0 0 0
0 0 0 0 0 0 0 0 0 0 0 0 0 0 0 0 0 0 0 0 0 0 0 0 0 0 0 0 0 0 0 0 0 0 0 0 0 0 0 0 0 0 0 0 0 0 0 0 0
Wind_Speed_500mb
7 4 6 4 3 6 10 10 8 11 2 9 9 8 3 17 5 5 20 36 32 20 19 18 15 13 9 8 9 9 9 8 6 9 12 14 17 20 20 21 22 23 22 21 19 18 21 24 27
8 5 5 10 4 8 4 15 8 11 16 15 6 10 3 7 3 11 24 35 30 24 18 16 13 8 6 5 4 6 9 12 14 17 19 23 22 23 24 23 22 22 23 23 24 25 25 25 24
5 5 6 6 8 12 5 8 15 23 18 13 7 5 8 7 4 16 16 35 30 25 20 13 9 7 5 5 7 7 9 11 14 18 19 20 20 20 20 22 23 25 27 29 32 34 34 31 31
8 4 11 5 19 11 8 8 38 21 9 9 3 6 6 15 21 20 24 35 32 28 22 17 14 9 5 2 1 2 4 4 7 8 10 13 14 15 19 20 21 23 24 26 30 34 35 36 36
2 10 7 11 20 3 11 8 25 17 21 23 15 8 7 18 28 17 25 36 31 28 22 17 11 9 8 6 4 5 5 7 9 11 12 13 13 13 15 17 19 20 23 27 30 32 32 32 34
10 9 7 12 10 9 8 12 18 26 25 21 18 18 9 18 25 27 30 36 35 32 24 21 21 19 15 11 9 7 6 6 7 7 7 7 8 8 10 11 12 14 16 19 22 24 27 29 31
7 5 13 22 17 6 11 18 17 21 22 21 10 6 12 24 25 30 32 37 37 33 31 30 26 22 19 14 11 8 6 5 4 4 4 6 8 11 14 18 21 23 25 25 26 26 26 27 27
9 5 11 12 10 10 10 16 4 20 12 16 29 11 10 30 30 33 36 39 40 39 38 37 31 28 23 19 14 11 8 6 5 5 5 6 9 12 17 21 24 28 30 30 29 29 29 28 27
6 5 11 16 1 2 12 9 12 15 10 19 24 19 13 17 29 34 41 44 46 46 46 44 38 34 28 23 18 15 14 13 12 10 8 8 7 11 13 17 20 22 25 27 29 31 30 27 26
10 6 10 6 11 6 12 20 14 7 21 22 28 33 35 34 37 41 46 50 52 52 52 50 45 40 34 30 26 21 20 20 19 16 12 11 9 11 15 17 19 22 25 27 28 27 26 27 26
12 10 2 9 10 8 14 18 26 15 15 31 42 48 50 48 49 49 51 52 53 52 53 53 49 45 39 37 31 29 28 26 24 20 18 15 13 14 17 19 20 22 25 28 31 32 32 32 33
9 31 36 9 8 7 9 9 19 43 45 13 21 41 56 58 56 56 58 56 55 56 55 56 54 50 45 42 36 36 34 31 28 25 22 19 19 20 20 20 21 24 28 33 34 33 32 32 33
16 24 29 25 21 25 25 32 19 43 48 52 49 43 40 52 59 57 56 56 57 61 60 60 58 55 51 45 44 41 38 36 33 29 26 23 22 21 20 21 23 26 31 35 38 38 36 33 33
13 22 35 28 35 23 16 18 22 35 37 54 53 56 55 60 65 60 63 64 65 65 66 65 61 60 56 51 50 47 43 40 37 34 28 26 24 23 22 23 24 28 33 40 42 42 41 39 38
11 14 19 30 37 12 14 20 29 76 33 34 38 58 66 61 63 71 68 68 65 70 71 72 65 63 61 58 56 53 50 46 43 39 34 31 30 27 25 23 25 29 35 41 44 44 43 44 45
8 10 9 7 25 18 22 26 20 35 45 61 52 49 54 66 67 72 68 69 63 68 77 74 69 65 65 62 60 56 53 48 46 42 37 34 31 26 26 25 25 27 32 38 42 44 45 47 50
17 13 19 18 27 15 18 18 13 12 27 31 43 48 54 64 72 69 70 67 66 71 78 76 71 69 68 64 60 57 55 51 48 43 39 37 34 31 28 25 25 27 32 37 41 40 43 48 52
14 15 16 21 15 14 15 35 26 45 26 41 60 60 70 73 71 74 72 68 70 74 78 74 71 70 66 64 62 62 59 55 54 48 46 43 40 33 28 28 29 30 35 38 39 40 41 47 55
26 32 35 42 23 18 33 39 31 38 51 43 60 66 73 74 68 68 74 72 71 77 79 77 75 74 70 73 73 71 67 60 57 54 52 48 44 35 33 35 34 34 35 39 41 42 43 44 52
21 24 40 36 27 20 21 29 19 17 39 63 59 68 79 56 51 59 72 73 74 81 82 79 79 76 75 77 74 70 65 63 58 57 57 54 47 41 40 40 38 36 38 40 41 43 41 41 45
33 23 32 34 26 10 10 16 23 21 58 62 71 80 80 57 52 57 72 74 74 85 88 83 80 78 75 77 74 71 68 67 68 70 66 59 52 47 44 41 40 40 40 41 43 43 39 40 42
45 20 23 26 14 16 9 17 18 12 16 20 55 71 65 51 45 53 69 70 75 78 80 80 80 79 74 76 81 85 86 83 79 70 63 61 57 53 49 44 42 42 41 44 44 41 39 42 46
23 6 5 7 12 12 11 16 14 20 18 26 23 69 72 49 47 61 66 69 67 70 77 79 81 80 77 77 81 84 84 80 72 68 67 64 59 56 51 47 44 43 43 45 46 41 40 42 48
6 1 7 6 4 19 22 23 9 16 20 13 19 55 62 39 32 44 53 59 63 68 74 78 82 82 80 81 83 85 83 83 81 79 74 67 62 59 54 50 46 44 45 45 46 44 43 45 50
6 5 7 7 4 25 23 24 36 12 16 21 24 49 49 41 38 37 53 64 66 72 75 78 82 83 84 84 82 84 84 86 89 86 78 70 68 65 59 54 49 47 45 46 46 47 47 50 54
17 18 11 15 21 42 9 18 12 19 24 52 60 72 37 37 35 39 50 58 65 72 73 77 80 84 87 85 82 82 83 88 91 92 84 78 72 65 60 55 50 47 46 46 49 50 51 53 58
11 12 7 6 4 8 24 25 16 16 23 24 36 32 34 36 37 42 50 56 65 68 70 73 76 83 87 85 85 85 84 88 95 92 86 79 73 69 63 56 51 48 48 49 50 51 53 57 59
7 2 4 3 5 16 42 32 35 13 36 20 12 22 32 33 38 40 49 57 65 64 61 69 77 84 86 87 87 90 87 87 92 92 89 83 77 70 62 57 52 50 49 51 51 52 54 57 59
3 8 8 3 11 19 29 30 9 12 5 17 16 21 26 31 35 41 46 55 65 62 65 71 78 83 89 92 92 92 90 89 92 93 90 84 76 70 62 56 52 51 50 51 51 54 55 58 60
15 30 27 22 36 8 21 53 4 19 14 19 21 25 23 37 34 39 43 48 59 65 69 72 77 83 87 94 93 93 93 90 91 92 89 82 75 67 58 54 53 52 50 49 52 54 55 60 64
Wind_Direction_500mb
145 121 64 298 281 210 257 152 56 100 109 73 346 82 37 71 356 192 179 177 185 185 185 188 188 182 187 192 200 198 220 238 274 290 286 298 301 305 309 311 314 315 313 313 308 306 304 308 313
154 77 18 289 247 257 338 102 148 145 79 109 13 40 19 79 87 153 157 169 181 189 196 177 184 186 183 219 262 267 262 266 274 285 290 295 305 305 303 304 304 302 302 301 300 299 298 297 302
163 134 271 202 237 260 36 126 148 87 109 138 149 208 343 89 112 169 185 181 181 197 198 194 192 199 201 204 201 219 239 252 262 273 290 293 293 297 298 296 294 293 292 293 295 297 300 303 302
85 283 269 256 268 305 36 96 114 115 139 193 171 178 187 180 174 215 191 184 193 203 197 198 195 180 185 180 37 330 310 312 290 297 290 292 296 301 300 301 304 305 302 300 297 299 300 298 295
126 266 258 228 250 140 96 352 128 158 167 188 183 173 202 197 226 233 196 196 200 212 202 205 197 210 206 214 220 251 263 275 287 297 301 304 306 308 306 311 314 314 314 310 308 303 301 299 295
268 247 279 258 315 108 108 181 172 180 176 142 183 259 188 229 224 214 197 199 205 213 212 203 205 210 211 216 229 245 259 273 281 290 306 317 327 344 354 353 345 345 341 335 330 327 322 314 305
260 288 262 285 309 311 173 160 211 204 199 174 182 229 196 222 227 215 204 208 216 215 219 219 223 222 220 222 242 252 269 285 300 335 358 357 4 9 7 7 1 358 354 350 344 341 337 332 327
288 283 270 273 274 345 103 152 222 240 229 193 198 224 200 238 222 210 207 215 217 217 220 225 223 228 226 231 231 241 247 253 270 289 309 331 335 352 357 357 354 350 348 345 340 337 338 335 331
239 274 271 269 51 322 116 209 194 226 220 199 207 222 238 227 214 209 210 216 222 221 223 226 229 232 229 232 236 238 246 253 259 262 272 284 322 342 349 348 347 344 339 334 332 331 327 325 326
223 234 262 27 348 296 171 218 208 214 229 226 227 234 237 235 228 220 221 223 224 226 223 226 227 228 228 227 228 231 239 246 249 255 263 277 298 316 319 324 328 331 330 326 320 316 313 313 312
220 230 237 302 274 295 277 232 245 212 250 227 226 228 239 237 232 231 232 233 235 233 229 230 227 228 225 229 226 230 233 233 239 245 252 262 278 290 298 306 317 322 321 320 319 317 316 316 316
269 249 257 282 267 250 244 258 251 232 232 257 246 230 236 231 236 238 236 233 231 232 234 231 227 227 225 228 228 231 231 232 234 238 242 250 259 269 283 298 307 312 320 327 326 323 321 321 321
225 261 281 263 250 245 256 258 250 252 247 252 256 253 243 237 241 245 243 237 231 232 233 233 229 226 225 226 227 229 230 231 234 235 240 249 260 273 286 296 301 311 321 327 331 331 325 324 323
352 300 287 278 238 228 226 259 243 259 254 246 239 246 241 242 243 243 239 233 228 230 231 234 229 225 225 224 228 230 231 234 235 239 240 247 255 262 271 280 294 311 326 333 332 330 329 330 326
290 301 269 246 232 236 217 275 229 254 231 238 237 239 246 245 242 243 244 237 232 228 231 233 230 224 223 223 228 228 230 229 231 233 235 240 247 254 268 282 300 318 329 333 331 330 329 328 327
229 233 283 265 201 161 142 269 225 254 236 234 239 243 242 247 249 246 243 240 233 227 229 232 231 224 223 223 226 229 230 229 230 233 235 241 249 260 269 283 302 319 325 326 327 326 326 327 327
227 248 236 269 180 132 177 253 274 225 212 233 234 245 251 256 252 244 240 235 234 229 230 230 230 225 223 223 225 227 230 230 232 235 241 246 252 255 264 282 297 305 310 319 322 323 323 324 324
237 231 267 277 204 177 208 251 265 263 261 254 261 254 258 257 255 247 234 233 233 231 229 232 230 226 222 223 224 226 229 228 232 235 239 244 249 254 267 276 283 293 304 312 316 317 320 325 327
253 264 264 264 262 179 232 242 246 256 271 257 260 261 261 260 264 251 236 225 226 225 224 227 228 226 221 221 222 225 230 230 234 235 239 243 246 253 263 270 278 285 297 303 311 314 320 326 325
272 275 271 279 286 200 249 254 251 251 256 260 260 267 266 262 251 243 229 219 221 222 221 225 229 228 225 226 227 230 233 233 236 237 240 242 244 249 258 266 274 282 290 299 306 309 316 322 326
245 244 259 264 286 221 303 271 255 242 245 258 262 262 265 258 244 237 213 217 220 219 222 224 228 229 227 227 228 228 230 232 232 235 238 239 240 244 253 261 270 279 287 296 301 304 309 311 320
266 241 264 265 284 250 159 282 230 234 240 231 248 264 264 257 244 230 216 217 224 224 225 225 226 229 228 228 229 230 233 234 238 240 240 237 239 241 248 257 266 276 286 291 294 298 304 306 312
262 152 248 279 268 309 253 276 230 185 233 240 245 257 269 266 253 220 221 225 229 224 222 221 224 228 229 229 232 235 235 237 239 238 236 238 239 241 247 256 265 273 280 286 290 296 299 302 305
124 317 233 240 201 254 207 218 213 201 214 226 227 252 262 261 229 213 220 223 223 220 220 220 221 223 226 229 233 236 237 235 231 233 235 237 239 241 246 254 260 269 275 281 287 293 297 297 299
194 154 291 287 185 256 181 226 244 208 186 190 212 233 249 216 221 217 213 211 215 217 218 220 221 223 226 228 234 239 239 235 234 237 237 237 238 241 245 251 259 267 274 280 286 289 292 295 297
183 182 175 235 261 277 166 251 242 204 219 218 221 242 229 205 217 225 220 218 216 218 221 222 223 224 226 229 234 240 240 238 236 236 236 238 241 243 245 251 259 266 271 277 281 286 292 296 298
177 196 200 242 54 310 264 271 298 243 232 218 216 194 193 200 222 224 223 224 222 222 227 226 227 226 228 230 233 238 240 240 238 236 236 237 238 240 245 251 257 264 269 274 280 287 294 296 297
199 175 109 224 263 243 277 284 272 217 252 226 190 208 216 229 236 233 232 233 231 230 236 233 231 231 230 231 234 238 240 241 239 237 235 235 237 238 242 249 256 261 267 274 280 288 293 292 295
155 246 228 271 184 238 267 273 267 132 100 183 208 230 245 230 232 245 243 238 240 242 241 237 234 234 234 235 236 237 239 241 239 237 235 235 235 235 238 245 254 262 268 275 281 289 291 292 295
218 226 202 226 238 234 238 262 283 274 154 156 179 194 242 268 263 252 240 244 245 244 241 242 240 240 242 238 236 236 239 241 240 236 233 231 232 235 240 246 254 261 269 275 284 288 292 294 295
Wind_Speed_850mb
7 4 6 4 3 6 10 10 8 11 2 9 9 8 3 17 5 5 20 36 32 20 19 18 15 13 9 8 9 9 9 8 6 9 12 14 17 20 20 21 22 23 22 21 19 18 21 24 27
8 5 5 10 4 8 4 15 8 11 16 15 6 10 3 7 3 11 24 35 30 24 18 16 13 8 6 5 4 6 9 12 14 17 19 23 22 23 24 23 22 22 23 23 24 25 25 25 24
5 5 6 6 8 12 5 8 15 23 18 13 7 5 8 7 4 16 16 35 30 25 20 13 9 7 5 5 7 7 9 11 14 18 19 20 20 20 20 22 23 25 27 29 32 34 34 31 31
8 4 11 5 19 11 8 8 38 21 9 9 3 6 6 15 21 20 24 35 32 28 22 17 14 9 5 2 1 2 4 4 7 8 10 13 14 15 19 20 21 23 24 26 30 34 35 36 36
2 10 7 11 20 3 11 8 25 17 21 23 15 8 7 18 28 17 25 36 31 28 22 17 11 9 8 6 4 5 5 7 9 11 12 13 13 13 15 17 19 20 23 27 30 32 32 32 34
10 9 7 12 10 9 8 12 18 26 25 21 18 18 9 18 25 27 30 36 35 32 24 21 21 19 15 11 9 7 6 6 7 7 7 7 8 8 10 11 12 14 16 19 22 24 27 29 31
7 5 13 22 17 6 11 18 17 21 22 21 10 6 12 24 25 30 32 37 37 33 31 30 26 22 19 14 11 8 6 5 4 4 4 6 8 11 14 18 21 23 25 25 26 26 26 27 27
9 5 11 12 10 10 10 16 4 20 12 16 29 11 10 30 30 33 36 39 40 39 38 37 31 28 23 19 14 11 8 6 5 5 5 6 9 12 17 21 24 28 30 30 29 29 29 28 27
6 5 11 16 1 2 12 9 12 15 10 19 24 19 13 17 29 34 41 44 46 46 46 44 38 34 28 23 18 15 14 13 12 10 8 8 7 11 13 17 20 22 25 27 29 31 30 27 26
10 6 10 6 11 6 12 20 14 7 21 22 28 33 35 34 37 41 46 50 52 52 52 50 45 40 34 30 26 21 20 20 19 16 12 11 9 11 15 17 19 22 25 27 28 27 26 27 26
12 10 2 9 10 8 14 18 26 15 15 31 42 48 50 48 49 49 51 52 53 52 53 53 49 45 39 37 31 29 28 26 24 20 18 15 13 14 17 19 20 22 25 28 31 32 32 32 33
9 31 36 9 8 7 9 9 19 43 45 13 21 41 56 58 56 56 58 56 55 56 55 56 54 50 45 42 36 36 34 31 28 25 22 19 19 20 20 20 21 24 28 33 34 33 32 32 33
16 24 29 25 21 25 25 32 19 43 48 52 49 43 40 52 59 57 56 56 57 61 60 60 58 55 51 45 44 41 38 36 33 29 26 23 22 21 20 21 23 26 31 35 38 38 36 33 33
13 22 35 28 35 23 16 18 22 35 37 54 53 56 55 60 65 60 63 64 65 65 66 65 61 60 56 51 50 47 43 40 37 34 28 26 24 23 22 23 24 28 33 40 42 42 41 39 38
11 14 19 30 37 12 14 20 29 76 33 34 38 58 66 61 63 71 68 68 65 70 71 72 65 63 61 58 56 53 50 46 43 39 34 31 30 27 25 23 25 29 35 41 44 44 43 44 45
8 10 9 7 25 18 22 26 20 35 45 61 52 49 54 66 67 72 68 69 63 68 77 74 69 65 65 62 60 56 53 48 46 42 37 34 31 26 26 25 25 27 32 38 42 44 45 47 50
17 13 19 18 27 15 18 18 13 12 27 31 43 48 54 64 72 69 70 67 66 71 78 76 71 69 68 64 60 57 55 51 48 43 39 37 34 31 28 25 25 27 32 37 41 40 43 48 52
14 15 16 21 15 14 15 35 26 45 26 41 60 60 70 73 71 74 72 68 70 74 78 74 71 70 66 64 62 62 59 55 54 48 46 43 40 33 28 28 29 30 35 38 39 40 41 47 55
26 32 35 42 23 18 33 39 31 38 51 43 60 66 73 74 68 68 74 72 71 77 79 77 75 74 70 73 73 71 67 60 57 54 52 48 44 35 33 35 34 34 35 39 41 42 43 44 52
21 24 40 36 27 20 21 29 19 17 39 63 59 68 79 56 51 59 72 73 74 81 82 79 79 76 75 77 74 70 65 63 58 57 57 54 47 41 40 40 38 36 38 40 41 43 41 41 45
33 23 32 34 26 10 10 16 23 21 58 62 71 80 80 57 52 57 72 74 74 85 88 83 80 78 75 77 74 71 68 67 68 70 66 59 52 47 44 41 40 40 40 41 43 43 39 40 42
45 20 23 26 14 16 9 17 18 12 16 20 55 71 65 51 45 53 69 70 75 78 80 80 80 79 74 76 81 85 86 83 79 70 63 61 57 53 49 44 42 42 41 44 44 41 39 42 46
23 6 5 7 12 12 11 16 14 20 18 26 23 69 72 49 47 61 66 69 67 70 77 79 81 80 77 77 81 84 84 80 72 68 67 64 59 56 51 47 44 43 43 45 46 41 40 42 48
6 1 7 6 4 19 22 23 9 16 20 13 19 55 62 39 32 44 53 59 63 68 74 78 82 82 80 81 83 85 83 83 81 79 74 67 62 59 54 50 46 44 45 45 46 44 43 45 50
6 5 7 7 4 25 23 24 36 12 16 21 24 49 49 41 38 37 53 64 66 72 75 78 82 83 84 84 82 84 84 86 89 86 78 70 68 65 59 54 49 47 45 46 46 47 47 50 54
17 18 11 15 21 42 9 18 12 19 24 52 60 72 37 37 35 39 50 58 65 72 73 77 80 84 87 85 82 82 83 88 91 92 84 78 72 65 60 55 50 47 46 46 49 50 51 53 58
11 12 7 6 4 8 24 25 16 16 23 24 36 32 34 36 37 42 50 56 65 68 70 73 76 83 87 85 85 85 84 88 95 92 86 79 73 69 63 56 51 48 48 49 50 51 53 57 59
7 2 4 3 5 16 42 32 35 13 36 20 12 22 32 33 38 40 49 57 65 64 61 69 77 84 86 87 87 90 87 87 92 92 89 83 77 70 62 57 52 50 49 51 51 52 54 57 59
3 8 8 3 11 19 29 30 9 12 5 17 16 21 26 31 35 41 46 55 65 62 65 71 78 83 89 92 92 92 90 89 92 93 90 84 76 70 62 56 52 51 50 51 51 54 55 58 60
15 30 27 22 36 8 21 53 4 19 14 19 21 25 23 37 34 39 43 48 59 65 69 72 77 83 87 94 93 93 93 90 91 92 89 82 75 67 58 54 53 52 50 49 52 54 55 60 64
Wind_Direction_850mb
145 121 64 298 281 210 257 152 56 100 109 73 346 82 37 71 356 192 179 177 185 185 185 188 188 182 187 192 200 198 220 238 274 290 286 298 301 305 309 311 314 315 313 313 308 306 304 308 313
154 77 18 289 247 257 338 102 148 145 79 109 13 40 19 79 87 153 157 169 181 189 196 177 184 186 183 219 262 267 262 266 274 285 290 295 305 305 303 304 304 302 302 301 300 299 298 297 302
163 134 271 202 237 260 36 126 148 87 109 138 149 208 343 89 112 169 185 181 181 197 198 194 192 199 201 204 201 219 239 252 262 273 290 293 293 297 298 296 294 293 292 293 295 297 300 303 302
85 283 269 256 268 305 36 96 114 115 139 193 171 178 187 180 174 215 191 184 193 203 197 198 195 180 185 180 37 330 310 312 290 297 290 292 296 301 300 301 304 305 302 300 297 299 300 298 295
126 266 258 228 250 140 96 352 128 158 167 188 183 173 202 197 226 233 196 196 200 212 202 205 197 210 206 214 220 251 263 275 287 297 301 304 306 308 306 311 314 314 314 310 308 303 301 299 295
268 247 279 258 315 108 108 181 172 180 176 142 183 259 188 229 224 214 197 199 205 213 212 203 205 210 211 216 229 245 259 273 281 290 306 317 327 344 354 353 345 345 341 335 330 327 322 314 305
260 288 262 285 309 311 173 160 211 204 199 174 182 229 196 222 227 215 204 208 216 215 219 219 223 222 220 222 242 252 269 285 300 335 358 357 4 9 7 7 1 358 354 350 344 341 337 332 327
288 283 270 273 274 345 103 152 222 240 229 193 198 224 200 238 222 210 207 215 217 217 220 225 223 228 226 231 231 241 247 253 270 289 309 331 335 352 357 357 354 350 348 345 340 337 338 335 331
239 274 271 269 51 322 116 209 194 226 220 199 207 222 238 227 214 209 210 216 222 221 223 226 229 232 229 232 236 238 246 253 259 262 272 284 322 342 349 348 347 344 339 334 332 331 327 325 326
223 234 262 27 348 296 171 218 208 214 229 226 227 234 237 235 228 220 221 223 224 226 223 226 227 228 228 227 228 231 239 246 249 255 263 277 298 316 319 324 328 331 330 326 320 316 313 313 312
220 230 237 302 274 295 277 232 245 212 250 227 226 228 239 237 232 231 232 233 235 233 229 230 227 228 225 229 226 230 233 233 239 245 252 262 278 290 298 306 317 322 321 320 319 317 316 316 316
269 249 257 282 267 250 244 258 251 232 232 257 246 230 236 231 236 238 236 233 231 232 234 231 227 227 225 228 228 231 231 232 234 238 242 250 259 269 283 298 307 312 320 327 326 323 321 321 321
225 261 281 263 250 245 256 258 250 252 247 252 256 253 243 237 241 245 243 237 231 232 233 233 229 226 225 226 227 229 230 231 234 235 240 249 260 273 286 296 301 311 321 327 331 331 325 324 323
352 300 287 278 238 228 226 259 243 259 254 246 239 246 241 242 243 243 239 233 228 230 231 234 229 225 225 224 228 230 231 234 235 239 240 247 255 262 271 280 294 311 326 333 332 330 329 330 326
290 301 269 246 232 236 217 275 229 254 231 238 237 239 246 245 242 243 244 237 232 228 231 233 230 224 223 223 228 228 230 229 231 233 235 240 247 254 268 282 300 318 329 333 331 330 329 328 327
229 233 283 265 201 161 142 269 225 254 236 234 239 243 242 247 249 246 243 240 233 227 229 232 231 224 223 223 226 229 230 229 230 233 235 241 249 260 269 283 302 319 325 326 327 326 326 327 327
227 248 236 269 180 132 177 253 274 225 212 233 234 245 251 256 252 244 240 235 234 229 230 230 230 225 223 223 225 227 230 230 232 235 241 246 252 255 264 282 297 305 310 319 322 323 323 324 324
237 231 267 277 204 177 208 251 265 263 261 254 261 254 258 257 255 247 234 233 233 231 229 232 230 226 222 223 224 226 229 228 232 235 239 244 249 254 267 276 283 293 304 312 316 317 320 325 327
253 264 264 264 262 179 232 242 246 256 271 257 260 261 261 260 264 251 236 225 226 225 224 227 228 226 221 221 222 225 230 230 234 235 239 243 246 253 263 270 278 285 297 303 311 314 320 326 325
272 275 271 279 286 200 249 254 251 251 256 260 260 267 266 262 251 243 229 219 221 222 221 225 229 228 225 226 227 230 233 233 236 237 240 242 244 249 258 266 274 282 290 299 306 309 316 322 326
245 244 259 264 286 221 303 271 255 242 245 258 262 262 265 258 244 237 213 217 220 219 222 224 228 229 227 227 228 228 230 232 232 235 238 239 240 244 253 261 270 279 287 296 301 304 309 311 320
266 241 264 265 284 250 159 282 230 234 240 231 248 264 264 257 244 230 216 217 224 224 225 225 226 229 228 228 229 230 233 234 238 240 240 237 239 241 248 257 266 276 286 291 294 298 304 306 312
262 152 248 279 268 309 253 276 230 185 233 240 245 257 269 266 253 220 221 225 229 224 222 221 224 228 229 229 232 235 235 237 239 238 236 238 239 241 247 256 265 273 280 286 290 296 299 302 305
124 317 233 240 201 254 207 218 213 201 214 226 227 252 262 261 229 213 220 223 223 220 220 220 221 223 226 229 233 236 237 235 231 233 235 237 239 241 246 254 260 269 275 281 287 293 297 297 299
194 154 291 287 185 256 181 226 244 208 186 190 212 233 249 216 221 217 213 211 215 217 218 220 221 223 226 228 234 239 239 235 234 237 237 237 238 241 245 251 259 267 274 280 286 289 292 295 297
183 182 175 235 261 277 166 251 242 204 219 218 221 242 229 205 217 225 220 218 216 218 221 222 223 224 226 229 234 240 240 238 236 236 236 238 241 243 245 251 259 266 271 277 281 286 292 296 298
177 196 200 242 54 310 264 271 298 243 232 218 216 194 193 200 222 224 223 224 222 222 227 226 227 226 228 230 233 238 240 240 238 236 236 237 238 240 245 251 257 264 269 274 280 287 294 296 297
199 175 109 224 263 243 277 284 272 217 252 226 190 208 216 229 236 233 232 233 231 230 236 233 231 231 230 231 234 238 240 241 239 237 235 235 237 238 242 249 256 261 267 274 280 288 293 292 295
155 246 228 271 184 238 267 273 267 132 100 183 208 230 245 230 232 245 243 238 240 242 241 237 234 234 234 235 236 237 239 241 239 237 235 235 235 235 238 245 254 262 268 275 281 289 291 292 295
218 226 202 226 238 234 238 262 283 274 154 156 179 194 242 268 263 252 240 244 245 244 241 242 240 240 242 238 236 236 239 241 240 236 233 231 232 235 240 246 254 261 269 275 284 288 292 294 295